Weather observations for the past three days for
Bakersfield, Meadows Field Airport
Metric (Imperial)
Date Time (pdt) Wind (kph) Vis. (km) Weather Sky Cond. Temperature (ºC) Relative Humidity Wind Chill (°C) Heat Index (°C) Pressure Precipitation (cm)
Air Dwpt 6 hour altimeter (cm) sea level (mb) 1 hr 3 hr 6 hr
Max. Min.
21 09:54 Vrbl 6 16.09 Fair CLR 22.8 5 32% 76.07 1013.6
21 08:54 Calm 16.09 Fair CLR 21.7 6.7 38% 76.07 1013.7
21 07:54 Calm 16.09 Fair CLR 19.4 6.1 42% 76.05 1013.4
21 06:54 E 6 16.09 Fair CLR 17.2 5.6 47% 76.02 1012.9
21 05:54 E 6 16.09 Fair CLR 16.1 5.6 50% 76 1012.5
21 04:54 E 6 16.09 Fair CLR 15.6 5.6 19.4 15 52% 75.97 1012.2
21 03:54 E 7 16.09 Fair CLR 16.7 5.6 48% 75.97 1012.2
21 02:54 Calm 16.09 Fair CLR 16.7 6.1 50% 75.95 1012.0
21 01:54 NE 7 16.09 Fair CLR 17.2 6.7 50% 75.95 1011.9
21 00:54 Calm 16.09 Fair CLR 18.3 6.7 47% 75.95 1011.9
20 23:54 N 9 16.09 Fair CLR 18.9 7.2 47% 75.95 1011.9
20 22:54 N 7 16.09 Fair CLR 19.4 7.2 28.9 18.9 45% 75.92 1011.7
20 21:54 NW 11 16.09 Fair CLR 19.4 6.1 42% 75.9 1011.2
20 20:54 W 17 16.09 Fair CLR 22.8 5.6 33% 75.84 1010.6
20 19:54 N 11 16.09 Fair CLR 23.9 1.7 23% 25 75.82 1010.1
20 18:54 NW 20 16.09 Fair CLR 27.2 0.6 18% 26 75.79 1009.8
20 17:54 NW 30 16.09 Fair CLR 27.8 -0.6 16% 27 75.79 1009.8
20 16:54 NW 26 G 39 16.09 Fair CLR 28.3 -1.1 28.3 23.9 15% 27 75.79 1009.9
20 15:54 NW 22 G 39 16.09 Fair CLR 27.8 -1.1 15% 27 75.82 1010.2
20 14:54 NW 15 G 33 16.09 Fair CLR 27.8 -1.1 15% 27 75.87 1010.9
20 13:54 W 20 16.09 Fair CLR 27.8 -1.1 15% 27 75.92 1011.5
20 12:54 NW 20 G 33 16.09 Fair CLR 26.1 1.1 20% 26 75.95 1012.1
20 11:54 NW 17 16.09 Fair CLR 25 2.8 24% 25 76 1012.6
20 10:54 NW 19 16.09 Fair CLR 23.9 3.9 24.4 13.3 27% 25 76 1012.5
20 09:54 Calm 16.09 Fair CLR 22.8 3.9 29% 76 1012.5
20 08:54 W 9 16.09 Fair CLR 20.6 1.7 29% 76 1012.6
20 07:54 NW 11 16.09 Fair CLR 18.3 0.6 31% 75.97 1012.4
20 06:54 NW 11 16.09 Fair CLR 16.1 4.4 46% 75.95 1012.0
20 05:54 Calm 16.09 Fair CLR 15.6 5 50% 75.9 1011.2
20 04:54 N 7 16.09 Fair CLR 17.2 3.9 20.6 16.1 41% 75.9 1011.2
20 03:54 N 17 16.09 Fair CLR 16.7 6.7 52% 75.87 1011.1
20 02:54 NE 6 16.09 Fair CLR 18.3 6.7 47% 75.87 1010.9
20 01:54 N 6 16.09 Fair CLR 18.9 7.2 47% 75.92 1011.5
20 00:54 N 9 16.09 Fair CLR 18.9 7.8 49% 75.9 1011.4
19 23:54 N 11 16.09 Fair CLR 19.4 8.3 49% 75.9 1011.2
19 22:54 NW 9 16.09 Fair CLR 20 8.9 31.1 20 49% 75.9 1011.3
19 21:54 NW 11 16.09 Fair CLR 22.8 9.4 43% 75.9 1011.2
19 20:54 NW 20 16.09 Fair CLR 25.6 9.4 36% 26 75.84 1010.5
19 19:54 N 13 16.09 Fair CLR 27.2 11.1 37% 27 75.82 1010.2
19 18:54 NW 22 16.09 Fair CLR 29.4 8.3 27% 28 75.79 1010.0
19 17:54 NW 24 G 37 16.09 Fair CLR 30.6 8.9 26% 29 75.79 1010.0
19 16:54 NW 19 16.09 Fair CLR 30.6 8.9 31.7 23.3 26% 29 75.84 1010.4
19 15:54 NW 20 16.09 Fair CLR 30.6 10 28% 29 75.87 1011.0
19 14:54 NW 15 16.09 Fair CLR 30.6 11.7 31% 29 75.95 1011.9
19 13:54 W 15 16.09 Fair CLR 28.3 11.7 36% 28 76.02 1012.7
19 12:54 Vrbl 7 16.09 Fair CLR 27.2 10.6 35% 27 76.07 1013.7
19 11:54 W 11 16.09 Fair CLR 25 10.6 40% 26 76.15 1014.6
19 10:54 W 9 16.09 Fair CLR 23.3 10.6 23.3 15.6 45% 76.2 1015.2
19 09:54 NW 17 16.09 Fair CLR 22.2 10.6 48% 76.2 1015.3
19 08:54 NW 17 16.09 Fair CLR 20.6 10.6 53% 76.2 1015.2
19 07:54 NW 13 16.09 Fair CLR 18.9 10 56% 76.17 1015.0
19 06:54 N 9 16.09 Fair CLR 17.2 9.4 60% 76.15 1014.7
19 05:54 N 11 16.09 Fair CLR 16.1 8.9 63% 76.1 1014.1
19 04:54 N 19 16.09 Fair CLR 17.8 8.9 21.1 17.2 56% 76.07 1013.6
19 03:54 N 15 16.09 Fair CLR 18.3 8.3 52% 76.05 1013.1
19 02:54 NW 7 16.09 Fair CLR 17.8 8.3 54% 76.02 1012.9
19 01:54 N 6 16.09 Fair CLR 20 8.9 49% 76.02 1012.8
19 00:54 N 7 16.09 Fair CLR 21.1 8.9 46% 76.02 1012.8
18 23:54 N 13 16.09 Fair CLR 21.1 8.9 46% 76 1012.7
18 22:54 N 6 16.09 Fair CLR 20.6 8.3 31.1 20 45% 76.02 1012.9
18 21:54 N 15 16.09 Fair CLR 21.1 8.9 46% 75.95 1012.1
18 20:54 N 15 16.09 Fair CLR 22.2 10 46% 75.9 1011.3
18 19:54 NW 24 16.09 Fair CLR 25 10 39% 26 75.82 1010.3
18 18:54 NW 28 16.09 Fair CLR 28.9 10 31% 28 75.74 1009.4
18 17:54 NW 17 16.09 Fair CLR 30.6 10 28% 29 75.74 1009.0
18 16:54 W 19 16.09 Fair CLR 31.1 8.9 31.7 25 25% 29 75.74 1009.1
18 15:54 NW 17 16.09 Fair CLR 31.7 8.9 24% 30 75.77 1009.3
18 14:54 W 22 G 31 16.09 Fair CLR 30.6 10.6 29% 29 75.79 1009.8
18 13:54 NW 15 G 31 16.09 Fair CLR 29.4 11.7 33% 28 75.82 1010.1
18 12:54 NW 17 16.09 Fair CLR 28.3 11.7 36% 28 75.87 1011.1
18 11:54 NW 15 16.09 Fair CLR 26.7 11.7 39% 27 75.92 1011.7
18 10:54 Calm 16.09 Fair CLR 25 10.6 25 17.8 40% 26 75.95 1012.1
Date Time (pdt) Wind (kph) Vis. (km) Weather Sky Cond. Air Dwpt Max. Min. Relative Humidity Wind Chill (°C) Heat Index (°C) altimeter (cm) sea level (mb) 1 hr 3 hr 6 hr
6 hour
Temperature (ºC) Pressure Precipitation (cm)